User: anonymous   Login
Location: Unspecified
(0.0000°N, 0.0000°E)
Time: 01:42:29
(UTC+00:00)
Language:

USA 148 - Orbit

View from above orbital plane
View from above orbital plane
View from above satellite
View from above satellite

Ground track
Ground track

The orbit data is extracted from the following two-line orbital elements,

1 26052U 00001A   18344.41757670 +.00000046 +00000-0 +00000-0 0  9993
2 26052 007.5698 049.8692 0001728 271.4739 088.3876 01.00277020005432
Epoch (UTC): 10 December 2018 10:01:18
Eccentricity: 0.0001728
inclination: 7.5698°
perigee height: 35777 km
apogee height: 35792 km
right ascension of ascending node: 49.8692°
argument of perigee: 271.4739°
revolutions per day: 1.00277020
mean anomaly at epoch: 88.3876°
orbit number at epoch: 543

The dashed part of the orbit path shows where the satellite is in the earth's shadow,  

DLR